Flight Track Log - Related Links

Times and Time Zones

All times are in EDT time to prevent confusion due to time zone crossing. See the UAL363 flight status page for this flight to view local times or setup timezone preferences in your user account.

Time Position Orientation Groundspeed Altitude Reporting Facility
EDT Latitude Longitude Course Direction KTS MPH feet Rate Location/Type
Sat 07:11:49 AM 41.9167 -87.9000 84° East 150 173 3,300  Level Chicago TRACON
Sat 07:12:49 AM 41.9167 -87.8333 90° East 203 234 5,400 2,676 Climbing Chicago TRACON
Sat 07:13:00 AM 41.9541 -87.4110 97° East  Level FlightAware Approximate
Sat 07:14:00 AM 41.9410 -87.2487 96° East  Level FlightAware Approximate
Sat 07:15:00 AM 41.9333 -87.0860 90° East  Level FlightAware Approximate
Sat 07:15:13 AM 41.9300 -87.5889 86° East 292 336 12,400  Level Chicago Center
Sat 07:16:00 AM 41.9334 -86.9227 90° East  Level FlightAware Approximate
Sat 07:16:14 AM 41.9342 -87.4600 87° East 340 391 15,100  Level Chicago Center
Sat 07:17:00 AM 41.9352 -86.7596 84° East  Level FlightAware Approximate
Sat 07:17:15 AM 41.9386 -87.3236 87° East 363 418 17,900  Level Chicago Center
Sat 07:18:15 AM 41.9411 -87.1822 89° East 379 436 20,300 2,281 Climbing Chicago Center
Sat 07:19:16 AM 41.9458 -87.0367 87° East 392 451 22,500 2,016 Climbing Chicago Center
Sat 07:20:17 AM 41.9478 -86.8861 89° East 405 466 24,400 2,033 Climbing Chicago Center
Sat 07:21:17 AM 41.9494 -86.7297 89° East 419 482 26,600 1,884 Climbing Chicago Center
Sat 07:22:18 AM 41.9519 -86.5764 89° East 424 488 28,200 1,525 Climbing Chicago Center
Sat 07:23:19 AM 41.9542 -86.4125 89° East 436 502 29,700 1,377 Climbing Chicago Center
Sat 07:24:20 AM 41.9533 -86.2431 90° East 451 519 31,000 1,388 Climbing Chicago Center
Sat 07:25:20 AM 41.9278 -86.0731 101° East 464 534 32,500 1,537 Climbing Chicago Center
Sat 07:26:21 AM 41.8950 -85.9044 105° East 466 536 34,100 1,279 Climbing Chicago Center
Sat 07:27:22 AM 41.8614 -85.7356 105° East 467 537 35,100 1,033 Climbing Chicago Center
Sat 07:28:23 AM 41.8269 -85.5603 105° East 477 549 36,200 885 Climbing Chicago Center
Sat 07:29:24 AM 41.7900 -85.3819 105° East 486 559 36,900 393 Climbing Chicago Center
Sat 07:30:25 AM 41.7536 -85.2017 105° East 489 563 37,000 57 Climbing Chicago Center
Sat 07:31:09 AM 41.7228 -85.0461 105° East 473 544 37,000  Level Cleveland Center
Sat 07:32:09 AM 41.6858 -84.8711 106° East 478 550 37,000  Level Cleveland Center
Sat 07:33:09 AM 41.6336 -84.7036 113° Southeast 484 557 37,000  Level Cleveland Center
Sat 07:33:27 AM 41.6219 -84.6794 123° Southeast 494 568 37,000  Level Chicago Center
Sat 07:34:09 AM 41.5642 -84.5467 120° Southeast 484 557 37,000  Level Cleveland Center
Sat 07:35:09 AM 41.4942 -84.3925 121° Southeast 489 563 37,000  Level Cleveland Center
Sat 07:35:29 AM 41.4831 -84.3681 121° Southeast 488 562 37,000  Level Chicago Center
Sat 07:36:09 AM 41.4219 -84.2414 123° Southeast 489 563 37,000  Level Cleveland Center
Sat 07:37:09 AM 41.3539 -84.0856 120° Southeast 489 563 37,000  Level Cleveland Center
Sat 07:38:09 AM 41.2836 -83.9297 121° Southeast 489 563 37,000  Level Cleveland Center
Sat 07:39:09 AM 41.2128 -83.7769 122° Southeast 489 563 37,000  Level Cleveland Center
Sat 07:40:09 AM 41.1419 -83.6189 121° Southeast 489 563 37,000  Level Cleveland Center
Sat 07:41:09 AM 41.0731 -83.4669 121° Southeast 489 563 37,000  Level Cleveland Center
Sat 07:42:09 AM 41.0039 -83.3097 120° Southeast 494 568 37,000 -50 Level Cleveland Center
Sat 07:43:09 AM 40.9483 -83.1892 121° Southeast 489 563 36,900  Descending Cleveland Center
Sat 07:44:57 AM 40.8003 -82.8786 122° Southeast 493 567 37,000 36 Climbing Indianapolis Center
Sat 07:45:57 AM 40.7275 -82.7247 122° Southeast 493 567 37,000  Level Indianapolis Center
Sat 07:46:58 AM 40.6556 -82.5708 122° Southeast 492 566 37,000  Level Indianapolis Center
Sat 07:47:59 AM 40.5822 -82.4186 122° Southeast 492 566 37,000  Level Indianapolis Center
Sat 07:49:00 AM 40.5094 -82.2653 122° Southeast 492 566 37,000  Level Indianapolis Center
Sat 07:50:01 AM 40.4347 -82.1119 123° Southeast 495 570 37,000  Level Indianapolis Center
Sat 07:50:33 AM 40.3914 -82.0253 123° Southeast 505 581 37,000  Level Cleveland Center
Sat 07:51:02 AM 40.3608 -81.9569 120° Southeast 498 573 37,000  Level Indianapolis Center
Sat 07:52:03 AM 40.2853 -81.8019 123° Southeast 500 575 37,000  Level Indianapolis Center
Sat 07:53:04 AM 40.2092 -81.6456 122° Southeast 505 581 37,000  Level Indianapolis Center
Sat 07:53:33 AM 40.1775 -81.5750 120° Southeast 505 581 37,000  Level Cleveland Center
Sat 07:54:33 AM 40.1017 -81.4217 123° Southeast 505 581 37,000  Level Cleveland Center
Sat 07:55:06 AM 40.0564 -81.3339 124° Southeast 505 581 37,000 -191 Level Indianapolis Center
Sat 07:56:07 AM 39.9786 -81.1769 123° Southeast 510 587 36,700 -414 Descending Indianapolis Center
Sat 07:56:33 AM 39.9514 -81.1139 119° Southeast 505 581 36,400 -1,047 Descending Cleveland Center
Sat 07:57:33 AM 39.8664 -80.9481 124° Southeast 505 581 35,200 -535 Descending Cleveland Center
Sat 07:59:10 AM 39.7503 -80.7192 123° Southeast 489 563 35,000 -76 Descending Indianapolis Center
Sat 08:00:11 AM 39.6753 -80.5717 123° Southeast 489 563 35,000  Level Indianapolis Center
Sat 08:00:39 AM 39.6467 -80.5103 121° Southeast 490 564 35,000  Level Washington Center
Sat 08:01:40 AM 39.5733 -80.3625 123° Southeast 490 564 35,000  Level Washington Center
Sat 08:02:41 AM 39.4997 -80.2178 123° Southeast 490 564 35,000 -403 Level Washington Center
Sat 08:03:39 AM 39.4200 -80.0675 124° Southeast 490 564 34,200 -1,373 Descending Washington Center
Sat 08:04:39 AM 39.3428 -79.8989 121° Southeast 520 598 32,300 -1,983 Descending Washington Center
Sat 08:05:40 AM 39.2928 -79.7189 110° East 530 610 30,200 -1,785 Descending Washington Center
Sat 08:06:40 AM 39.2761 -79.5383 97° East 517 595 28,700 -1,438 Descending Washington Center
Sat 08:07:41 AM 39.2608 -79.3633 96° East 503 579 27,300 -1,412 Descending Washington Center
Sat 08:08:39 AM 39.2433 -79.1803 97° East 485 558 25,900 -1,373 Descending Washington Center
Sat 08:09:39 AM 39.2292 -79.0239 97° East 465 535 24,600 -1,488 Descending Washington Center
Sat 08:10:40 AM 39.2169 -78.8681 96° East 444 511 22,900 -1,785 Descending Washington Center
Sat 08:11:40 AM 39.2000 -78.7172 98° East 433 498 21,000 -1,835 Descending Washington Center
Sat 08:12:41 AM 39.1850 -78.5772 98° East 412 474 19,200 -1,600 Descending Washington Center
Sat 08:13:40 AM 39.1717 -78.4350 97° East 406 467 17,800 -1,450 Descending Washington Center
Sat 08:14:41 AM 39.1497 -78.3056 102° East 391 450 16,300 -1,328 Descending Washington Center
Sat 08:15:42 AM 39.1169 -78.1786 108° East 369 425 15,100 -1,169 Descending Washington Center
Sat 08:16:39 AM 39.0881 -78.0625 108° East 356 410 14,000 -1,109 Descending Washington Center
Sat 08:17:41 AM 39.0592 -77.9494 108° East 342 394 12,900 -1,033 Descending Washington Center
Sat 08:18:41 AM 39.0300 -77.8361 108° East 331 381 11,900 -1,026 Descending Washington Center
Sat 08:19:38 AM 39.0047 -77.7419 109° East 318 366 10,900 -1,008 Descending Washington Center
Sat 08:20:40 AM 38.9772 -77.6342 108° East 299 344 9,900 -990 Descending Washington Center
Sat 08:21:21 AM 38.9500 -77.5667 117° Southeast 285 328 9,200 -1,010 Descending Potomac TRACON
Sat 08:22:21 AM 38.9167 -77.4667 113° Southeast 284 327 8,200 -1,053 Descending Potomac TRACON
Sat 08:23:15 AM 38.8833 -77.4000 123° Southeast 288 331 7,200 -1,105 Descending Potomac TRACON
Sat 08:24:15 AM 38.8500 -77.3000 113° Southeast 281 323 6,100 -750 Descending Potomac TRACON
Sat 08:25:15 AM 38.8000 -77.2333 134° Southeast 259 298 5,700 -783 Descending Potomac TRACON
Sat 08:26:10 AM 38.7667 -77.1667 123° Southeast 221 254 4,600 -1,304 Descending Potomac TRACON
Sat 08:27:10 AM 38.7333 -77.1167 131° Southeast 213 245 3,200 -1,250 Descending Potomac TRACON
Sat 08:28:10 AM 38.7500 -77.0500 72° East 177 204 2,100 -1,100 Descending Potomac TRACON

Login

Don't have an account? Register now (free) for customized features, flight alerts, and more!